Simultaneous Nadir Overpasses (SNOs) Predictions

Prediction of SNOs between FY3D and NOAA-19 Satellite Orbit:

Table of predicted SNOs for the next 14.0 days since TLE Epoch: 1/12/2025
Index Date (FY3D) Time (FY3D) Lat,Lon (FY3D) SZA (FY3D ) Date (NOAA-19) Time (NOAA-19) Lat,Lon (NOAA-19) SZA (NOAA-19 ) Distance(km) Time Diff (sec)
1 01/25/2025 17:09:50 75.54, -72.04 94.25 01/25/2025 17:08:44 75.55, -75.09 94.25 84.65 66
2 01/25/2025 18:00:45 -76.02, 93.66 85.30 01/25/2025 17:59:39 -75.99, 93.65 85.33 3.07 66
3 01/25/2025 18:51:30 76.00, -98.98 94.68 01/25/2025 18:50:31 76.00, -99.03 94.68 1.28 59
4 01/25/2025 19:42:15 -76.02, 68.27 85.31 01/25/2025 19:41:35 -76.03, 68.31 85.30 1.46 40
5 01/25/2025 20:33:00 76.01,-124.37 94.67 01/25/2025 20:32:27 76.04,-124.36 94.71 3.70 33
6 01/25/2025 21:23:45 -76.03, 42.88 85.32 01/25/2025 21:23:32 -76.03, 42.81 85.32 1.75 13
7 01/25/2025 22:14:30 76.06,-149.93 94.71 01/25/2025 22:14:23 76.04,-149.86 94.68 2.88 7
8 01/25/2025 23:05:14 -76.03, 17.49 85.34 01/25/2025 23:05:27 -76.07, 17.48 85.30 4.02 13
9 01/25/2025 23:56:00 76.07,-175.32 94.69 01/25/2025 23:56:20 76.04,-175.36 94.66 3.54 20
10 01/26/2025 00:46:45 -76.08, -8.07 85.30 01/26/2025 00:47:24 -76.07, -8.02 85.32 2.27 39
11 01/26/2025 01:37:30 76.07, 159.29 94.68 01/26/2025 01:38:16 76.08, 159.30 94.69 0.71 46
12 01/26/2025 02:28:15 -76.09, -33.46 85.32 01/26/2025 02:29:21 -76.06, -33.52 85.34 3.34 66



Historial Predications of SNOs between FY3D and NOAA-19
